This is the latest recevied weather packets stored in our database for station/object N1ORT. If no packets are shown the sender has not sent any weather packets the latest 10 day(s).
| Time | Temp. | Humidity | Pressure | Rain* | Wind** | Luminosity | Snow |
|---|---|---|---|---|---|---|---|
| 1788610257 | 17.78° C | 93% | 1008.1 hPa | 0 mm | - | 93 W/m² | - |
| 1788609956 | 17.78° C | 94% | 1008.2 hPa | 0 mm | - | 106 W/m² | - |
| 1788609652 | 17.22° C | 95% | 1008.1 hPa | 0 mm | - | 101 W/m² | - |
| 1788609350 | 17.22° C | 95% | 1007.9 hPa | 0 mm | - | 69 W/m² | - |
| 1788609045 | 17.22° C | 95% | 1007.9 hPa | 0 mm | - | 27 W/m² | - |
| 1788608744 | 17.22° C | 95% | 1008.2 hPa | 0 mm | - | 16 W/m² | - |
| 1788608444 | 17.22° C | 95% | 1008.1 hPa | 0 mm | - | 12 W/m² | - |
| 1788608139 | 17.22° C | 95% | 1007.9 hPa | 0 mm | - | 19 W/m² | - |
| 1788607834 | 17.22° C | 95% | 1007.9 hPa | 0 mm | - | 19 W/m² | - |
| 1788607529 | 17.22° C | 95% | 1007.9 hPa | 0 mm | - | 18 W/m² | - |
| 1788607225 | 16.67° C | 95% | 1007.7 hPa | 0 mm | - | 15 W/m² | - |
| 1788606919 | 16.67° C | 95% | 1007.8 hPa | 0 mm | - | 13 W/m² | - |
| 1788606619 | 16.67° C | 95% | 1007.7 hPa | 0 mm | - | 17 W/m² | - |
| 1788606318 | 16.67° C | 95% | 1007.7 hPa | 0 mm | - | 13 W/m² | - |
| 1788606014 | 16.67° C | 95% | 1007.9 hPa | 0 mm | - | 17 W/m² | - |
| 1788605713 | 16.67° C | 96% | 1007.8 hPa | 0 mm | - | 11 W/m² | - |
| 1788605407 | 16.11° C | 96% | 1007.8 hPa | 0 mm | - | 10 W/m² | - |
| 1788605103 | 16.11° C | 97% | 1007.6 hPa | 0 mm | - | 8 W/m² | - |
| 1788604797 | 16.11° C | 97% | 1007.7 hPa | 0 mm | - | 6 W/m² | - |
| 1788604492 | 16.11° C | 97% | 1007.6 hPa | 0 mm | - | 8 W/m² | - |
| 1788604189 | 15.56° C | 98% | 1007.6 hPa | 0 mm | - | 7 W/m² | - |
| 1788603884 | 15.56° C | 98% | 1007.6 hPa | 0 mm | - | 6 W/m² | - |
| 1788603580 | 15.56° C | 98% | 1007.5 hPa | 0 mm | - | 4 W/m² | - |
| 1788603278 | 15.56° C | 98% | 1007.6 hPa | 0 mm | - | 3 W/m² | - |
| 1788602978 | 15.56° C | 98% | 1007.4 hPa | 0 mm | - | 1 W/m² | - |
* Rain latest hour (hover to see other rain measurements)
** Current wind speed in m/s (hover to see current wind gust speed)